Regional Weather Roundup
Issued by NWS

Home | Current Version | Previous Version | Graphics & Text | Print | Product List | Glossary On
Versions: 1 2 3 4 5 6 7 8 9 10 11 12 13 14 15 16 17 18 19 20 21 22 23 24 25 26 27 28 29 30 31 32 33 34 35 36 37 38 39 40 41 42 43 44 45 46 47 48 49 50
000
ASUS43 KMKX 252011
RWRWI

WISCONSIN REGIONAL WEATHER ROUNDUP
NATIONAL WEATHER SERVICE MILWAUKEE/SULLIVAN WI
300 PM CDT MON SEP 25 2017

NOTE: "FAIR" INDICATES FEW OR NO CLOUDS BELOW 12,000 FEET WITH NO
SIGNIFICANT WEATHER AND/OR OBSTRUCTIONS TO VISIBILITY.

WIZ001-002-006>008-014>016-023>028-252100-
NORTHWEST WISCONSIN

CITY           SKY/WX    TMP DP  RH WIND       PRES   REMARKS
SUPERIOR ARPT  DRIZZLE   59  56  92 N6        30.01F
ASHLAND        CLOUDY    64  57  78 N6        29.99S
HAYWARD        CLOUDY    63  59  87 N5        29.97F
SIREN          DRIZZLE   58  56  92 N6        30.00S
CUMBERLAND     CLOUDY    61  59  94 N9        29.97S
RICE LAKE      CLOUDY    67  62  84 N7        29.96F
CHETEK         CLOUDY    70  65  84 NW5       29.93F
LADYSMITH      MOSUNNY   80  65  61 CALM      29.93F HX  82
EAU CLAIRE     PTSUNNY   84  65  52 S9        29.86F HX  86
MENOMONIE      CLOUDY    75  67  76 NW12      29.92R
NEW RICHMOND   CLOUDY    62  60  94 NW12      29.97F
OSCEOLA        CLOUDY    61  61 100 NW7       30.01F
$$

WIZ003>005-009-010-017-018-252100-
NORTH CENTRAL WISCONSIN

CITY           SKY/WX    TMP DP  RH WIND       PRES   REMARKS
MANITOWISH WTR NOT AVBL
ARBOR VITAE    MOSUNNY   80  65  61 CALM      29.93F HX  82
WOODRUFF       MOSUNNY   80  65  61 CALM      29.93F HX  82
RHINELANDER    MOSUNNY   83  63  50 S8        29.95F HX  84
EAGLE RIVER    MOSUNNY   80  62  53 SW3       29.94F HX  81
LAND O LAKES   PTSUNNY   80  63  55 S3        29.97F HX  82
PHILLIPS       CLOUDY    80  65  60 CALM      29.92F HX  82
TOMAHAWK       MOSUNNY   82  63  52 S3        29.93F HX  83
MEDFORD        MOSUNNY   82  64  55 S7        29.93F HX  84
MERRILL        MOSUNNY   84  65  52 S7        29.93F HX  85
$$

WIZ029-030-035-036-043>047-252100-
CENTRAL WISCONSIN

CITY           SKY/WX    TMP DP  RH WIND       PRES   REMARKS
WAUSAU         MOSUNNY   86  62  44 S7        29.91F HX  86
MOSINEE        NOT AVBL
MARSHFIELD     PTSUNNY   84  64  50 S8        29.92S HX  85
STEVENS POINT  PTSUNNY   85  62  45 S9        29.93S HX  86
WAUPACA        MOSUNNY   91  60  36 S5        29.92F HX  90
WAUTOMA        MOSUNNY   89  63  41 S7        29.91F HX  90
WISC RAPIDS    MOSUNNY   88  64  44 S8G18     29.92F HX  89
CAMP DOUGLAS   PTSUNNY   90  64  43 S7        29.90F HX  91
$$

WIZ011>013-019>022-031-037>040-048>050-252100-
NORTHEAST WISCONSIN

CITY           SKY/WX    TMP DP  RH WIND       PRES   REMARKS
ANTIGO         MOSUNNY   85  63  48 S10G17    29.95F HX  85
SHAWANO        SUNNY     90  61  38 S6        29.92F HX  89
OCONTO         SUNNY     86  61  42 CALM      29.92F HX  86
STURGEON BAY   SUNNY     82  62  50 SE13      29.95F HX  83
GREEN BAY      SUNNY     90  61  37 S9        29.92F HX  90
MANITOWOC      MOSUNNY   80  66  62 SE9       29.95F HX  82
APPLETON       MOSUNNY   86  59  39 SE7       29.93F HX  85
CLINTONVILLE   SUNNY     90  57  33 S8        29.91F HX  88
OSHKOSH        SUNNY     87  63  44 S12       29.92F HX  88
$$

WIZ032>034-041-042-053>061-252100-
SOUTHWEST WISCONSIN

CITY           SKY/WX    TMP DP  RH WIND       PRES   REMARKS
LA CROSSE      LGT RAIN  68  65  90 SE6       29.92F
SPARTA         MOSUNNY   83  65  55 W23G29    29.95R HX  84
VIROQUA        CLOUDY    69  64  84 W9G20     29.96R
BOSCOBEL       MOSUNNY   92  61  35 VRB6      29.88F HX  92
PRAIRIE DU CHI PTSUNNY   78  61  55 NW13G22   29.89R
PLATTEVILLE    SUNNY     90  60  36 S12G18    29.91F HX  90
$$

WIZ056-057-062-063-064-067-068-252100-
SOUTH CENTRAL WISCONSIN

CITY           SKY/WX    TMP DP  RH WIND       PRES   REMARKS
REEDSBURG      MOSUNNY   88  64  44 S5        29.90F HX  90
BARABOO/DELLS  MOSUNNY   88  59  37 S6        29.91F HX  88
LONE ROCK      MOSUNNY   89  63  41 S12       29.88F HX  90
MINERAL POINT  MOSUNNY   90  57  33 S9G16     29.92F HX  88
MADISON        MOSUNNY   89  59  36 S10       29.91F HX  88
MIDDLETON      SUNNY     89  59  36 S10       29.92F HX  88
WATERTOWN      SUNNY     90  61  37 S7        29.92F HX  89
MONROE         MOSUNNY   90  54  29 S13G20    29.92F HX  87
JANESVILLE     MOSUNNY   93  54  26 S7        29.92F HX  91
$$

WIZ051-052-058>065-066-070>072-252100-
SOUTHEAST WISCONSIN

CITY           SKY/WX    TMP DP  RH WIND       PRES   REMARKS
MILWAUKEE      MOSUNNY   85  64  49 SE16      29.94F HX  86
WAUKESHA       PTSUNNY   88  55  33 SW9       29.95F HX  86
MILWAUKEE/TIMM MOSUNNY   84  55  37 E8        29.95F HX  83
RACINE         SUNNY     84  66  54 SE13      29.97F HX  86
BURLINGTON     SUNNY     92  58  32 S6        29.93F HX  91
KENOSHA        SUNNY     88  59  37 SE16      29.95F HX  87
FOND DU LAC    MOSUNNY   89  57  33 S9        29.92F HX  88
SHEBOYGAN      SUNNY     83  67  58 SE9       29.95F HX  85
WEST BEND        N/A     86  63  45 E7        29.95S HX  87
JUNEAU         SUNNY     87  61  42 S7        29.94F HX  87
$$

LSZ147-162-252100-
LAKE SUPERIOR

STATION/POSITION TIME  TEMP    WIND        PRES    WAVE
                       AIR SEA DIR/SP/G            HT/PER
                 (UTC) (F)     (DEG/KT/KT) (MB)    (FT/S)
W MID LAKE BUOY  1950   58 56     CALM     1014.9F   1
DEVILS ISLAND    2000   60     310/ 10/ 12 1015.6F
SAXON HARBOR     1930   64     360/  3/  4 1014.9F
$$

LMZ867-665-643>646-252100-
LAKE MICHIGAN

STATION/POSITION TIME  TEMP    WIND        PRES    WAVE
                       AIR SEA DIR/SP/G            HT/PER
                 (UTC) (F)     (DEG/KT/KT) (MB)    (FT/S)
S GREEN BAY BUOY 1900   79 71  330/  4/  4 1014.0F
N MID LAKE BUOY  1950   70 68  180/ 10/ 12 1014.7F   1/ 3
NORTHPORT PIER   1940   74     160/  9/ 12 1013.9F
KEWAUNEE LAKESHO 1942   68     180/  8/ 11 1013.7F
SHEBOYGAN LAKESH 2000   71     160/  9/ 10 1013.7F
PORT WASHINGTON  1930   76     130/  3/  4 1015.2F
ATWATER BUOY     1909   67 62  180/  6/  6 1014.4F
MILWAUKEE LAKESH 1950   67     140/ 11/ 12   N/A
S MID LAKE BUOY  1950   73 71  140/  6/  8 1014.8F   1
KENOSHA   LAKESH 2000   75     170/ 10/ 11 1013.9
$$

TC  - TEMPERATURE IN CELSIUS
VSB - VISIBILITY IN STATUTE MILES
WCI - WIND CHILL INDEX
HX  - HEAT INDEX





USA.gov is the U.S. government's official web portal to all federal, state and local government web resources and services.